Tracking 21473 objects as of 20-Sep-2020
HD Live streaming from Space Station
objects crossing your sky now

ACRUX 1

Track ACRUX 1 now!
10-day predictions
ACRUX 1 is classified as:


NORAD ID: 44369
Int'l Code: 2019-037E
Perigee: 437.3 km
Apogee: 455.3 km
Inclination: 45.0 °
Period: 93.4 minutes
Semi major axis: 6817 km
RCS: Unknown
Launch date: June 29, 2019
Source: Australia (AUS)
Launch site: Rocket Lab Launch Complex (RLLC)

Uplink (MHz):
Downlink (MHz): 437.200
Beacon (MHz):
Mode: 9600bps GMSK
Call sign: CQ
Status: Inactive

aabbcc
Your satellite tracking list
Your tracking list is empty




NASA's NSSDC Master Catalog

Two Line Element Set (TLE):
1 44369U 19037E   20263.57411687 +.00002562 +00000-0 +66073-4 0  9999
2 44369 045.0083 312.8034 0013230 013.5493 346.5748 15.42351252069106
Source of the keplerian elements: AFSPC